Meteopurmerend
purmerend
Purmerend - Baaienwijk



My webcam  My webcam


Onweer radar Meer informatie blitzortung!


Regen radar Meer informatie rain snow radar


Bezoek onze andere website:

CandyAppleRed WebdesignWebdesign Purmerend Candy Apple Red

MeteopurmerendBlog

Template documentation
and downloads



We konden geen weer-waarchuwingen ophalen. Ga rechtstreeks naar de Meteoalarm site : www.meteoalarm.eu en controleer daar .

15 daagse weersverwachting Frankfurt am Main (DE)

  • Overzicht
  • Per uur
  • 15 dagen
  • Extra
  • Vergelijk
  • Kaarten
  • Dagkaart
  • Meer »
  • Info
  • Statistieken
  • Directe link
    Temp 6h Neerslag Wind  
 05:19     21:39    Daglengte: 16:20 Vandaag
08:00
20°
 
1
14:00
29°
 
1
20:00
27°
 
3
 05:19     21:39    Daglengte: 16:20 Morgen
02:00
22°
 
2
08:00
20°
7.1 mm
2
14:00
25°
 
3
20:00
23°
 
4
 05:20     21:39    Daglengte: 16:19 Dinsdag 28 Jun
02:00
18°
 
1
08:00
18°
 
2
14:00
26°
 
3
20:00
25°
 
3
Locatie info
Region: Hessen
Latitude: 50.1121°N
Longitude: 8.6834°E
113 masl
Postcode: 60311
Temp/Neerslag /Baro Onweer/Dauwpunt
    Temp Baro 1h Neerslag Dauwpunt Wind UV Bewolking  
 05:19     21:39    Daglengte: 16:20 Vandaag
04:00
18°
1012.5 hPa   15.4°
2
Windvlaag: 1 m/s
43%
05:00
18°
1012.3 hPa   15.2°
2
Windvlaag: -0.5 m/s
23%
06:00
17°
1012.7 hPa   15.3°
2
Windvlaag: -0.8 m/s
29%
07:00
18°
1013.1 hPa   15.4°
1
Windvlaag: -0.9 m/s
45%
08:00
20°
1013.4 hPa   15.4°
1
Windvlaag: -0.7 m/s
12%
09:00
22°
1013.6 hPa   14.7°
1
Windvlaag: 2 m/s
11%
10:00
24°
1013.7 hPa   14.6°
1
Windvlaag: 2.5 m/s
42%
11:00
26°
1013.9 hPa
13%
13.9°
2
Windvlaag: 3.2 m/s
40%
12:00
27°
1013.7 hPa   13.2°
2
Windvlaag: 2.4 m/s
35%
13:00
28°
Voelt als: 27.5°
1013.4 hPa   12.5°
2
Windvlaag: 1.8 m/s
10%
14:00
29°
Voelt als: 28.6°
1013.0 hPa
38%
13.0°
1
Windvlaag: 0.4 m/s
21%
15:00
30°
Voelt als: 29.5°
1012.7 hPa
21%
14.7°
2
Windvlaag: -0.4 m/s
24%
16:00
28°
1012.7 hPa
22%
17.0°
3
Windvlaag: 1 m/s
30%
17:00
28°
Voelt als: 27.7°
1012.5 hPa
73%
13.7°
2
Windvlaag: 2.7 m/s
15%
18:00
28°
Voelt als: 27.5°
1012.3 hPa
17%
12.2°
2
Windvlaag: -2 m/s
13%
19:00
28°
Voelt als: 27.3°
1012.2 hPa
12%
12.0°
2
Windvlaag: -3.9 m/s
26%
20:00
27°
1012.3 hPa
12%
13.8°
3
Windvlaag: -4.9 m/s
40%
21:00
26°
1012.1 hPa
12%
15.7°
3
Windvlaag: -5.7 m/s
38%
22:00
24°
1012.3 hPa
12%
16.6°
3
Windvlaag: -4.6 m/s
50%
23:00
23°
1012.3 hPa
12%
17.3°
3
Windvlaag: -4.1 m/s
59%
 05:19     21:39    Daglengte: 16:20 Morgen
00:00
23°
1012.3 hPa
12%
18.0°
3
Windvlaag: -3.1 m/s
41%
01:00
22°
1012.2 hPa
27%
18.0°
3
Windvlaag: -2.6 m/s
65%
02:00
22°
1012.3 hPa
72%
18.6°
2
Windvlaag: -1.2 m/s
72%
03:00
21°
1012.1 hPa 2.2 mm
82%
18.5°
1
Windvlaag: 0.6 m/s
86%
04:00
20°
1012.5 hPa 4.8 mm
82%
17.9°
2
Windvlaag: 2.5 m/s
86%
05:00
19°
1012.4 hPa
82%
17.6°
1
Windvlaag: 1.3 m/s
81%
06:00
19°
1012.7 hPa
16%
17.1°
2
Windvlaag: 0 m/s
52%
07:00
19°
1013.1 hPa
14%
16.0°
2
Windvlaag: -0.1 m/s
44%
08:00
20°
1013.4 hPa
14%
14.7°
2
Windvlaag: 1.5 m/s
62%
09:00
21°
1013.8 hPa
16%
13.8°
2
Windvlaag: 1.7 m/s
75%
10:00
22°
1014.0 hPa
14%
13.1°
3
Windvlaag: 3.5 m/s
22%
11:00
24°
1014.3 hPa
14%
13.9°
3
Windvlaag: 3.4 m/s
46%
12:00
25°
1014.3 hPa
14%
14.3°
3
Windvlaag: 3.3 m/s
16%
13:00
25°
1014.4 hPa
23%
13.8°
3
Windvlaag: 3.2 m/s
63%
14:00
25°
1014.5 hPa
76%
12.0°
3
Windvlaag: 2.9 m/s
50%
15:00
25°
1014.9 hPa
82%
11.2°
4
Windvlaag: 4.4 m/s
49%
16:00
25°
1015.3 hPa
82%
11.5°
4
Windvlaag: 4 m/s
46%
17:00
25°
1015.5 hPa
82%
12.4°
4
Windvlaag: 5.4 m/s
41%
18:00
25°
1015.6 hPa
82%
12.9°
4
Windvlaag: 5.1 m/s
53%
19:00
24°
1016.3 hPa
82%
12.5°
5
Windvlaag: 1.6 m/s
77%
20:00
23°
1017.2 hPa
82%
12.1°
4
Windvlaag: 1.2 m/s
81%
21:00
22°
1017.6 hPa
82%
12.6°
4
Windvlaag: 0.8 m/s
83%
22:00
21°
1018.7 hPa
74%
12.6°
3
Windvlaag: -0.4 m/s
63%
23:00
19°
1019.7 hPa
24%
15.8°
2
Windvlaag: 0.5 m/s
86%
 05:20     21:39    Daglengte: 16:19 Dinsdag 28 Jun
00:00
19°
1019.8 hPa
21%
14.6°
2
Windvlaag: 0.9 m/s
66%
01:00
19°
1019.9 hPa
21%
13.5°
1
Windvlaag: 1.5 m/s
49%
02:00
18°
1020.3 hPa
21%
12.5°
1
Windvlaag: 1.2 m/s
18%
03:00
17°
1020.6 hPa
21%
11.6°
1
Windvlaag: 1.4 m/s
4%
04:00
16°
1020.7 hPa
21%
11.4°
1
Windvlaag: 1.2 m/s
10%
05:00
16°
1020.9 hPa
24%
11.1°
1
Windvlaag: 1.1 m/s
19%
06:00
16°
1021.1 hPa
21%
11.3°
1
Windvlaag: 0.8 m/s
9%
07:00
17°
1021.3 hPa
21%
11.8°
1
Windvlaag: 0.7 m/s
1%
08:00
18°
1020.6 hPa
21%
11.5°
2
Windvlaag: 2.5 m/s
0%
09:00
19°
1020.4 hPa
21%
10.9°
3
Windvlaag: 2.6 m/s
14%
10:00
21°
1020.3 hPa
21%
10.1°
3
Windvlaag: 1.4 m/s
52%
11:00
22°
1019.9 hPa
21%
9.2°
3
Windvlaag: 1.6 m/s
48%
12:00
23°
1019.2 hPa
21%
8.7°
3
Windvlaag: 1.7 m/s
12%
13:00
25°
1018.1 hPa
21%
8.4°
3
Windvlaag: 1.9 m/s
62%
14:00
26°
1017.0 hPa
21%
8.1°
3
Windvlaag: 2.2 m/s
58%
15:00
26°
Voelt als: 25.9°
1016.2 hPa
21%
7.6°
4
Windvlaag: 2.4 m/s
80%
16:00
26°
Voelt als: 26.1°
1015.7 hPa
21%
7.9°
3
Windvlaag: 2.6 m/s
67%
17:00
27°
Voelt als: 26.4°
1015.1 hPa
21%
8.2°
4
Windvlaag: 2.8 m/s
73%
18:00
26°
Voelt als: 26.1°
1014.9 hPa
21%
8.2°
4
Windvlaag: 3.1 m/s
80%
19:00
26°
1014.2 hPa
25%
7.2°
3
Windvlaag: 3.4 m/s
80%
20:00
25°
1013.9 hPa
86%
6.2°
3
Windvlaag: 3.6 m/s
80%
21:00
23°
1014.1 hPa 8.4 mm
100%
6.1°
3
Windvlaag: 3.7 m/s
80%
22:00
22°
1014.6 hPa 8.7 mm
100%
5.7°
3
Windvlaag: 5.6 m/s
81%
23:00
20°
1013.9 hPa 9.1 mm
100%
7.0°
4
Windvlaag: 5.4 m/s
95%
 05:20     21:38    Daglengte: 16:18 Woensdag 29 Jun
00:00
19°
1013.8 hPa 9.7 mm
100%
7.8°
3
Windvlaag: 7.7 m/s
94%
01:00
19°
1013.1 hPa 10.3 mm
100%
7.7°
4
Windvlaag: 6.8 m/s
98%
02:00
18°
1012.4 hPa 11.5 mm
100%
7.8°
4
Windvlaag: 7.1 m/s
91% warningclass
Temp/Neerslag /Baro Onweer/Dauwpunt
    Temp Baro Neerslag Dauwpunt Wind Bewolking  
 05:19     21:39    Daglengte: 16:20 Vandaag
05:00
18°
1012.3 hPa   15.2°
2
23%
08:00
20°
1013.4 hPa   15.4°
1
12%
11:00
26°
1013.9 hPa   13.9°
2
40%
14:00
29°
Voelt als: 28.6°
1013.0 hPa   13.0°
1
21%
17:00
28°
Voelt als: 27.7°
1012.5 hPa   13.7°
2
15%
20:00
27°
1012.3 hPa   13.8°
3
40%
23:00
23°
1012.3 hPa   17.3°
3
59%
 05:19     21:39    Daglengte: 16:20 Morgen
02:00
22°
1012.3 hPa   18.6°
2
72%
05:00
19°
1012.4 hPa 7.1 mm 17.6°
1
81%
08:00
20°
1013.4 hPa   14.7°
2
62%
11:00
24°
1014.3 hPa   13.9°
3
46%
14:00
25°
1014.5 hPa   12.0°
3
50%
17:00
25°
1015.5 hPa   12.4°
4
41%
20:00
23°
1017.2 hPa   12.1°
4
81%
23:00
19°
1019.7 hPa   15.8°
2
86%
 05:20     21:39    Daglengte: 16:19 Dinsdag 28 Jun
02:00
18°
1020.3 hPa   12.5°
1
18%
05:00
16°
1020.9 hPa   11.1°
1
19%
08:00
18°
1020.6 hPa   11.5°
2
0%
11:00
22°
1019.9 hPa   9.2°
3
48%
14:00
26°
1017.0 hPa   8.1°
3
58%
17:00
27°
Voelt als: 26.4°
1015.1 hPa   8.2°
4
73%
20:00
25°
1013.9 hPa   6.2°
3
80%
23:00
20°
1013.9 hPa 26.1 mm 7.0°
4
95%
 05:20     21:38    Daglengte: 16:18 Woensdag 29 Jun
02:00
18°
1012.4 hPa 31.6 mm 7.8°
4
91% warningclass
05:00
19°
1016.5 hPa 18.4 mm 16.5°
1
1%
08:00
19°
1016.1 hPa 18.6 mm 16.1°
2
1%
11:00
21°
1016.5 hPa 18.6 mm 14.9°
1
1%
14:00
26°
1014.9 hPa 18.6 mm 13.6°
2
1%
17:00
29°
Voelt als: 28.5°
1013.4 hPa 18.6 mm 15.1°
2
0%
20:00
25°
1013.0 hPa 18.7 mm 15.9°
2
1%
23:00
23°
1013.6 hPa 18.7 mm 16.8°
1
1%
 05:21     21:38    Daglengte: 16:17 Donderdag 30 Jun
02:00
22°
1013.6 hPa 18.7 mm 17.1°
2
1%
05:00
20°
1012.9 hPa 18.7 mm 16.3°
2
1%
08:00
22°
1012.8 hPa 18.7 mm 15.6°
2
0%
11:00
27°
1011.6 hPa 18.7 mm 16.1°
2
0%
14:00
30°
Voelt als: 30.4°
1010.0 hPa 18.8 mm 15.7°
2
0%
17:00
30°
Voelt als: 29.8°
1008.8 hPa 18.8 mm 14.7°
1
1%
20:00
28°
1007.5 hPa 18.8 mm 17.3°
2
1%
23:00
24°
1007.6 hPa 18.8 mm 16.6°
2
0%
 05:22     21:38    Daglengte: 16:16 Vrijdag 01 Jul
02:00
22°
1007.8 hPa 18.9 mm 16.0°
0
0%
05:00
19°
1009.8 hPa 20.2 mm 17.8°
3
1%
08:00
18°
1013.4 hPa 22.5 mm 17.0°
4
1%
11:00
19°
1015.2 hPa 23.3 mm 15.2°
4
1%
14:00
22°
1015.9 hPa 23.5 mm 11.6°
4
1%
17:00
18°
1017.3 hPa 23.8 mm 12.5°
4
1%
20:00
19°
1017.9 hPa 23.9 mm 13.1°
3
1%
23:00
15°
1019.2 hPa 24.0 mm 12.5°
2
0%
 05:22     21:38    Daglengte: 16:16 Zaterdag 02 Jul
02:00
15°
1020.8 hPa 24.0 mm 10.3°
2
1%
05:00
14°
1021.5 hPa 24.0 mm 10.1°
2
1%
08:00
17°
1021.9 hPa 24.0 mm 9.7°
2
1%
11:00
22°
1021.5 hPa 24.0 mm 7.3°
3
0%
14:00
25°
1020.7 hPa 24.0 mm 6.4°
3
0%
17:00
26°
Voelt als: 25.6°
1019.8 hPa 24.0 mm 6.7°
3
0%
20:00
24°
1019.6 hPa 24.0 mm 7.9°
2
0%
23:00
19°
1020.5 hPa 24.0 mm 8.0°
1
0%
 05:23     21:37    Daglengte: 16:14 Zondag 03 Jul
02:00
17°
1020.4 hPa 48.0 mm 8.7°
0
0%
08:00
19°
1019.9 hPa 48.0 mm 9.1°
1
0%
14:00
28°
Voelt als: 26.9°
1018.0 hPa 48.0 mm 8.1°
4
0%
20:00
26°
1016.9 hPa 48.0 mm 8.8°
4
0%
 05:24     21:37    Daglengte: 16:13 Maandag 04 Jul
02:00
17°
1018.5 hPa 48.0 mm 11.0°
1
0%
08:00
18°
1019.4 hPa 48.0 mm 11.0°
2
1%
14:00
25°
1019.2 hPa 48.0 mm 5.7°
4
1%
20:00
22°
1019.6 hPa 48.0 mm 7.0°
5
0%
 05:25     21:36    Daglengte: 16:11 Dinsdag 05 Jul
02:00
14°
1022.7 hPa 48.0 mm 8.9°
2
0%
08:00
16°
1023.9 hPa 48.0 mm 9.0°
2
0%
14:00
25°
1022.3 hPa 48.0 mm 6.8°
3
0%
20:00
23°
1022.0 hPa 48.0 mm 8.2°
4
0%
 05:25     21:36    Daglengte: 16:11 Woensdag 06 Jul
02:00
17°
1018.9 hPa 0.4 mm 11.3°
1
39%
08:00
18°
1019.1 hPa 0.2 mm 12.2°
0
43%
14:00
26°
1018.0 hPa 0.4 mm 11.6°
1
46%
20:00
24°
1017.0 hPa 0.4 mm 12.7°
1
52%
 05:26     21:35    Daglengte: 16:09 Donderdag 07 Jul
02:00
17°
1018.4 hPa 0.3 mm 11.8°
0
46%
08:00
19°
1018.8 hPa 0.5 mm 12.7°
1
44%
14:00
26°
1018.1 hPa 0.7 mm 12.4°
2
49%
20:00
24°
1017.2 hPa 0.6 mm 13.1°
2
50%
 05:27     21:35    Daglengte: 16:08 Vrijdag 08 Jul
02:00
17°
1018.8 hPa 0.1 mm 12.0°
1
41%
08:00
18°
1019.1 hPa 0.5 mm 12.7°
1
40%
14:00
26°
1017.8 hPa 0.7 mm 11.5°
2
37%
20:00
24°
1016.8 hPa 0.6 mm 12.5°
2
41%
 05:28     21:34    Daglengte: 16:06 Zaterdag 09 Jul
02:00
17°
1018.5 hPa 0.5 mm 11.5°
1
39%
08:00
18°
1018.5 hPa 0.1 mm 11.9°
1
39%
14:00
25°
1017.0 hPa 0.2 mm 10.8°
2
44%
20:00
24°
1015.8 hPa 0.4 mm 12.3°
2
48%
 05:29     21:33    Daglengte: 16:04 Zondag 10 Jul
02:00
17°
1016.8 hPa 0.4 mm 11.0°
0
41%
08:00
18°
1016.9 hPa 0.2 mm 11.7°
1
44%
14:00
25°
1016.1 hPa 0.5 mm 11.5°
3
56%
20:00
23°
1015.9 hPa 0.4 mm 11.9°
2
53%
 05:30     21:33    Daglengte: 16:03 Maandag 11 Jul
02:00
17°
1017.8 hPa 0.1 mm 10.9°
1
41%
  CAPE Lifted Index Hail Supercell Tornado SRH 3km CL BTM PRES CL TOP PRES Swiss DWD icon SMHI TS
 05:19     21:39    Daglengte: 16:20 Vandaag
04:00 0 J/kg -1.4 K 0 % 0 % 0 % 0 m²/s² 0 0 -0.41 3
05:00 0 J/kg -0.4 K 0 % 0 % 0 % 0 m²/s² 0 0 0.59 3
06:00 0 J/kg -0.9 K 0 % 0 % 0 % 0 m²/s² 0 0 -0.6 2
07:00 0 J/kg -0.4 K 0 % 0 % 0 % 0 m²/s² 0 0 0.17 3
08:00 3 J/kg 0.8 K 0 % 0 % 0 % 0 m²/s² 0 0 2 2
09:00 3 J/kg 0.4 K 0 % 0 % 0 % 0 m²/s² 0 0 2.32 1
10:00 0 J/kg -0.2 K 0 % 0 % 0 % 0 m²/s² 0 0 1.33 2
11:00 65 J/kg -0.4 K 0 % 0 % 0 % 0 m²/s² 0 0 0.59 2
12:00 142 J/kg -0.9 K 0 % 0 % 0 % 0 m²/s² 0 0 -0.15 2
13:00 228 J/kg -1.3 K 0 % 0 % 0 % 0 m²/s² 0 0 -0.4 2
14:00 370 J/kg -2.1 K 0 % 0 % 0 % 0 m²/s² 0 0 -1.29 3
15:00 519 J/kg -2.6 K 0 % 0 % 0 % 0 m²/s² 0 0 -1.88 3
16:00 590 J/kg -2.6 K 0 % 0 % 0 % 0 m²/s² 0 0 -1.88 2
17:00 603 J/kg -2.4 K 0 % 0 % 0 % 0 m²/s² 0 0 -1.92 2
18:00 573 J/kg -2.5 K 0 % 0 % 0 % 0 m²/s² 0 0 -1.48 2
19:00 536 J/kg -2.3 K 0 % 0 % 0 % 0 m²/s² 0 0 -0.74 3
20:00 563 J/kg -2.6 K 0 % 0 % 0 % 0 m²/s² 0 0 -0.74 3
21:00 673 J/kg -3.0 K 0 % 0 % 0 % 0 m²/s² 0 0 -1.2 3
22:00 716 J/kg -3.3 K 0 % 0 % 0 % 0 m²/s² 0 0 -1.68 3
23:00 626 J/kg -3.9 K 0 % 0 % 0 % 0 m²/s² 0 0 -2.28 3
 05:19     21:39    Daglengte: 16:20 Morgen
00:00 627 J/kg -4.7 K 0 % 0 % 0 % 0 m²/s² 0 0 -3.83 3
01:00 367 J/kg -3.5 K 0 % 0 % 0 % 0 m²/s² 0 0 -3.02 3
02:00 335 J/kg -2.1 K 0 % 0 % 0 % 0 m²/s² 0 0 -1.2 3
03:00 189 J/kg -1.4 K 0 % 0 % 0 % 0 m²/s² 0 0 -1.4 61
04:00 5 J/kg -1.5 K 0 % 0 % 0 % 0 m²/s² 0 0 0.06 61
05:00 11 J/kg -0.9 K 0 % 0 % 0 % 0 m²/s² 0 0 1.05 61
06:00 0 J/kg 0.3 K 0 % 0 % 0 % 0 m²/s² 0 0 2.16 3
07:00 0 J/kg 1.7 K 0 % 0 % 0 % 0 m²/s² 0 0 3.02 3
08:00 0 J/kg 1.7 K 0 % 0 % 0 % 0 m²/s² 0 0 3.5 3
09:00 5 J/kg 1.4 K 0 % 0 % 0 % 0 m²/s² 0 0 3.41 3
10:00 0 J/kg 1.6 K 0 % 0 % 0 % 0 m²/s² 0 0 2.83 3
11:00 0 J/kg 1.0 K 0 % 0 % 0 % 0 m²/s² 0 0 1.87 3
12:00 0 J/kg 0.7 K 0 % 0 % 0 % 0 m²/s² 0 0 1.51 2
13:00 26 J/kg 0.4 K 0 % 0 % 0 % 0 m²/s² 0 0 0.88 3
14:00 35 J/kg -0.1 K 0 % 0 % 0 % 0 m²/s² 0 0 0.62 61
15:00 235 J/kg -1.1 K 0 % 0 % 0 % 0 m²/s² 0 0 -0.65 61
16:00 66 J/kg -0.2 K 0 % 0 % 0 % 0 m²/s² 0 0 0.01 61
17:00 0 J/kg 3.1 K 0 % 0 % 0 % 0 m²/s² 0 0 3.49 80
18:00 3 J/kg 1.1 K 0 % 0 % 0 % 0 m²/s² 0 0 1.13 3
19:00 11 J/kg 1.3 K 0 % 0 % 0 % 0 m²/s² 0 0 2.14 80
20:00 12 J/kg 1.8 K 0 % 0 % 0 % 0 m²/s² 0 0 3.69 80
21:00 187 J/kg 0.0 K 0 % 0 % 0 % 0 m²/s² 0 0 3.15 80
22:00 338 J/kg -0.5 K 0 % 0 % 0 % 0 m²/s² 0 0 2.26 3
23:00 264 J/kg 0.2 K 0 % 0 % 0 % 0 m²/s² 0 0 1.43 3
 05:20     21:39    Daglengte: 16:19 Dinsdag 28 Jun
00:00 146 J/kg 1.1 K 0 % 0 % 0 % 0 m²/s² 0 0 5.54 3
01:00 16 J/kg 2.0 K 0 % 0 % 0 % 0 m²/s² 0 0 7.79 3
02:00 0 J/kg 2.9 K 0 % 0 % 0 % 0 m²/s² 0 0 9.41 3
03:00 0 J/kg 3.7 K 0 % 0 % 0 % 0 m²/s² 0 0 9.85 3
04:00 0 J/kg 4.6 K 0 % 0 % 0 % 0 m²/s² 0 0 10.24 3
05:00 0 J/kg 5.2 K 0 % 0 % 0 % 0 m²/s² 0 0 10.99 3
06:00 0 J/kg 6.5 K 0 % 0 % 0 % 0 m²/s² 0 0 13.04 3
07:00 0 J/kg 7.4 K 0 % 0 % 0 % 0 m²/s² 0 0 14.6 2
08:00 0 J/kg 7.8 K 0 % 0 % 0 % 0 m²/s² 0 0 15.84 1
09:00 0 J/kg 8.2 K 0 % 0 % 0 % 0 m²/s² 0 0 16.57 3
10:00 0 J/kg 8.1 K 0 % 0 % 0 % 0 m²/s² 0 0 17.25 3
11:00 0 J/kg 7.6 K 0 % 0 % 0 % 0 m²/s² 0 0 16.75 3
12:00 0 J/kg 7.6 K 0 % 0 % 0 % 0 m²/s² 0 0 16.75 3
13:00 0 J/kg 7.6 K 0 % 0 % 0 % 0 m²/s² 0 0 16.36 3
14:00 0 J/kg 7.2 K 0 % 0 % 0 % 0 m²/s² 0 0 15.99 3
15:00 0 J/kg 6.5 K 0 % 0 % 0 % 0 m²/s² 0 0 14.99 3
16:00 0 J/kg 6.0 K 0 % 0 % 0 % 0 m²/s² 0 0 14.49 3
17:00 0 J/kg 5.4 K 0 % 0 % 0 % 0 m²/s² 0 0 13.92 3
18:00 0 J/kg 4.5 K 0 % 0 % 0 % 0 m²/s² 0 0 13.38 3
19:00 0 J/kg 4.9 K 0 % 0 % 0 % 0 m²/s² 0 0 14.14 3
20:00 0 J/kg 5.6 K 0 % 0 % 0 % 0 m²/s² 0 0 14.81 3
21:00 0 J/kg 5.4 K 0 % 0 % 0 % 0 m²/s² 0 0 15.06 3
22:00 0 J/kg 4.7 K 0 % 0 % 0 % 0 m²/s² 0 0 14.36 80
23:00 0 J/kg 3.8 K 0 % 0 % 0 % 0 m²/s² 0 0 11.99 80
 05:20     21:38    Daglengte: 16:18 Woensdag 29 Jun
00:00 0 J/kg 2.2 K 0 % 0 % 0 % 0 m²/s² 0 0 11.05 80
01:00 0 J/kg 2.3 K 0 % 0 % 0 % 0 m²/s² 0 0 11.54 81
02:00 0 J/kg 2.5 K 0 % 0 % 0 % 0 m²/s² 0 0 12.61 95
Temp Baro Wind Neerslag
  EWN Forecast EWN WRFDA DWD ICON FMI HIRLAM MET Norway GFS
 05:19     21:39    Daglengte: 16:20 Vandaag
05:00 17.6° 1012.3 hPa 1.7 m/s 0.0 mm 18.4° 1011.5 hPa 1.9 m/s 0.0 mm 17.4° 1012.3 hPa 1.1 m/s -2.0 mm 16.2° 1012.8 hPa 1.7 m/s 0.0 mm 17.5° 1013.7 hPa 1.2 m/s
08:00 20.5° 1013.4 hPa 0.7 m/s 0.0 mm 21.0° 1012.6 hPa 0.9 m/s 0.0 mm 20.7° 1013.6 hPa 0.3 m/s 0.0 mm 18.9° 1013.5 hPa 0.7 m/s 0.0 mm 19.0° 1015.0 hPa 1.3 m/s
11:00 25.5° 1013.9 hPa 1.6 m/s 0.0 mm 24.7° 1013.8 hPa 3.4 m/s 0.0 mm 25.6° 1014.4 hPa 2.1 m/s 0.0 mm 26.2° 1013.9 hPa 1.1 m/s 0.0 mm 24.7° 1015.0 hPa 1.2 m/s
14:00 29.3° 1013.0 hPa 1.4 m/s 0.0 mm 27.2° 1013.6 hPa 2.6 m/s 0.0 mm 28.1° 1013.6 hPa 0.8 m/s 0.0 mm 30.5° 1012.9 hPa 1.9 m/s 0.0 mm 28.2° 1014.2 hPa 1.3 m/s
17:00 28.0° 1012.5 hPa 2.1 m/s 0.0 mm 28.8° 1012.6 hPa 1.8 m/s 0.1 mm 27.7° 1013.3 hPa 2.2 m/s 0.0 mm 30.0° 1012.5 hPa 2.0 m/s 0.0 mm 29.0° 1013.4 hPa 1.3 m/s
20:00 26.9° 1012.3 hPa 2.8 m/s 0.0 mm 28.8° 1011.7 hPa 1.4 m/s 0.2 mm 26.7° 1012.5 hPa 2.5 m/s 0.0 mm 28.9° 1012.5 hPa 2.8 m/s 0.0 mm 21.2° 1013.5 hPa 3.8 m/s
23:00 23.1° 1012.3 hPa 3.0 m/s 0.0 mm 25.5° 1010.6 hPa 3.3 m/s 0.2 mm 22.7° 1012.2 hPa 2.0 m/s 0.0 mm 24.4° 1013.5 hPa 3.0 m/s 0.0 mm 18.4° 1012.4 hPa 3.7 m/s
 05:19     21:39    Daglengte: 16:20 Morgen
02:00 21.5° 1012.3 hPa 1.9 m/s 0.0 mm 21.2° 1011.5 hPa 2.9 m/s 4.2 mm 21.6° 1012.0 hPa 1.2 m/s 0.0 mm 21.9° 1012.4 hPa 4.3 m/s 0.0 mm 17.7° 1013.2 hPa 3.1 m/s
05:00 19.4° 1012.4 hPa 1.3 m/s 7.1 mm 19.4° 1011.5 hPa 2.1 m/s 54.0 mm 19.1° 1012.8 hPa 0.7 m/s 1.2 mm 19.9° 1010.5 hPa 4.3 m/s 0.0 mm 16.6° 1014.3 hPa 1.7 m/s
08:00 20.2° 1013.4 hPa 1.9 m/s 0.0 mm 20.5° 1013.2 hPa 3.6 m/s 65.9 mm 20.0° 1013.9 hPa 1.6 m/s 0.0 mm 22.0° 1009.8 hPa 2.6 m/s 0.0 mm 17.3° 1015.7 hPa 3.0 m/s
11:00 23.8° 1014.3 hPa 3.0 m/s 0.0 mm 23.2° 1013.9 hPa 3.5 m/s 65.9 mm 23.9° 1014.8 hPa 2.8 m/s 0.0 mm 27.5° 1009.9 hPa 5.1 m/s 0.0 mm 18.8° 1017.1 hPa 2.2 m/s
14:00 24.6° 1014.5 hPa 2.8 m/s 0.0 mm 25.8° 1014.3 hPa 4.3 m/s 65.9 mm 23.7° 1014.8 hPa 1.0 m/s 0.4 mm 30.5° 1010.9 hPa 6.2 m/s 0.0 mm 23.5° 1016.8 hPa 2.8 m/s
17:00 24.5° 1015.5 hPa 4.1 m/s 0.0 mm 23.4° 1016.3 hPa 5.4 m/s 66.0 mm 21.2° 1015.6 hPa 1.5 m/s 3.2 mm 26.8° 1013.3 hPa 7.5 m/s 0.0 mm 19.5° 1019.0 hPa 3.8 m/s
20:00 23.1° 1017.2 hPa 4.0 m/s 0.0 mm 23.4° 1016.5 hPa 4.2 m/s 66.1 mm 20.4° 1017.5 hPa 1.9 m/s 1.2 mm 23.9° 1015.4 hPa 5.3 m/s 0.0 mm 18.0° 1020.2 hPa 2.5 m/s
23:00 19.3° 1019.7 hPa 1.8 m/s 0.0 mm 19.2° 1019.7 hPa 2.8 m/s 68.8 mm 18.1° 1019.0 hPa 1.1 m/s 0.4 mm 16.6° 1021.7 hPa 2.2 m/s
 05:20     21:39    Daglengte: 16:19 Dinsdag 28 Jun
02:00 17.7° 1020.3 hPa 1.2 m/s 0.0 mm 17.6° 1020.4 hPa 2.7 m/s 74.3 mm 16.4° 1019.4 hPa 0.4 m/s 0.0 mm 14.9° 1021.7 hPa 1.8 m/s
05:00 15.9° 1020.9 hPa 0.6 m/s 0.0 mm 15.2° 1021.1 hPa 1.7 m/s 74.3 mm 15.6° 1019.9 hPa 0.4 m/s 0.0 mm 13.7° 1022.3 hPa 0.5 m/s
08:00 17.8° 1020.6 hPa 1.7 m/s 0.0 mm 16.7° 1021.8 hPa 1.1 m/s 74.3 mm 18.1° 1020.3 hPa 1.9 m/s 0.0 mm 16.7° 1022.3 hPa 0.6 m/s
11:00 21.7° 1019.9 hPa 3.1 m/s 0.0 mm 21.5° 1021.4 hPa 1.6 m/s 74.3 mm 21.7° 1019.5 hPa 3.5 m/s 0.0 mm 22.4° 1021.2 hPa 0.9 m/s
14:00 25.7° 1017.0 hPa 3.3 m/s 0.0 mm 24.9° 1019.4 hPa 2.2 m/s 74.3 mm 25.9° 1016.4 hPa 3.6 m/s 0.0 mm 25.9° 1019.0 hPa 1.2 m/s
17:00 26.9° 1015.1 hPa 3.6 m/s 0.0 mm 26.6° 1017.8 hPa 2.8 m/s 74.3 mm 26.9° 1014.4 hPa 3.8 m/s 0.0 mm 27.2° 1017.1 hPa 1.1 m/s
20:00 25.1° 1013.9 hPa 3.2 m/s 0.0 mm 26.2° 1017.4 hPa 3.0 m/s 74.3 mm 24.8° 1013.0 hPa 3.3 m/s 0.0 mm 25.3° 1016.4 hPa 1.5 m/s
23:00 20.0° 1013.9 hPa 3.5 m/s 26.1 mm 22.0° 1017.6 hPa 3.1 m/s 74.3 mm 19.5° 1012.9 hPa 3.6 m/s 2.0 mm 22.1° 1016.8 hPa 1.3 m/s
 05:20     21:38    Daglengte: 16:18 Woensdag 29 Jun
02:00 18.4° 1012.4 hPa 3.6 m/s 31.6 mm 19.7° 1016.4 hPa 2.7 m/s 74.3 mm 18.1° 1011.4 hPa 3.9 m/s 10.2 mm 20.9° 1016.5 hPa 1.2 m/s
05:00 19.1° 1016.5 hPa 1.1 m/s 18.4 mm 19.1° 1016.5 hPa 1.1 m/s 18.4 mm
08:00 19.2° 1016.1 hPa 1.5 m/s 18.6 mm 19.2° 1016.1 hPa 1.5 m/s 18.6 mm
11:00 21.4° 1016.5 hPa 1.4 m/s 18.6 mm 21.4° 1016.5 hPa 1.4 m/s 18.6 mm
14:00 25.8° 1014.9 hPa 2.4 m/s 18.6 mm 25.8° 1014.9 hPa 2.4 m/s 18.6 mm
17:00 28.5° 1013.4 hPa 1.8 m/s 18.6 mm 28.5° 1013.4 hPa 1.8 m/s 18.6 mm
20:00 24.9° 1013.0 hPa 1.9 m/s 18.7 mm 24.9° 1013.0 hPa 1.9 m/s 18.7 mm
23:00 22.7° 1013.6 hPa 0.9 m/s 18.7 mm 22.7° 1013.6 hPa 0.9 m/s 18.7 mm
 05:21     21:38    Daglengte: 16:17 Donderdag 30 Jun
02:00 21.9° 1013.6 hPa 1.5 m/s 18.7 mm 21.9° 1013.6 hPa 1.5 m/s 18.7 mm
05:00 20.0° 1012.9 hPa 1.6 m/s 18.7 mm 20.0° 1012.9 hPa 1.6 m/s 18.7 mm
08:00 21.9° 1012.8 hPa 2.3 m/s 18.7 mm 21.9° 1012.8 hPa 2.3 m/s 18.7 mm
11:00 27.0° 1011.6 hPa 2.5 m/s 18.7 mm 27.0° 1011.6 hPa 2.5 m/s 18.7 mm
14:00 30.5° 1010.0 hPa 2.4 m/s 18.8 mm 30.5° 1010.0 hPa 2.4 m/s 18.8 mm
17:00 30.2° 1008.8 hPa 1.1 m/s 18.8 mm 30.2° 1008.8 hPa 1.1 m/s 18.8 mm
20:00 27.6° 1007.5 hPa 2.4 m/s 18.8 mm 27.6° 1007.5 hPa 2.4 m/s 18.8 mm
23:00 23.7° 1007.6 hPa 1.6 m/s 18.8 mm 23.7° 1007.6 hPa 1.6 m/s 18.8 mm
 05:22     21:38    Daglengte: 16:16 Vrijdag 01 Jul
02:00 21.6° 1007.8 hPa 0.3 m/s 18.9 mm 21.6° 1007.8 hPa 0.3 m/s 18.9 mm
05:00 18.8° 1009.8 hPa 3.3 m/s 20.2 mm 18.8° 1009.8 hPa 3.3 m/s 20.2 mm
08:00 18.0° 1013.4 hPa 3.8 m/s 22.5 mm 18.0° 1013.4 hPa 3.8 m/s 22.5 mm
11:00 18.9° 1015.2 hPa 4.2 m/s 23.3 mm 18.9° 1015.2 hPa 4.2 m/s 23.3 mm
14:00 21.5° 1015.9 hPa 3.8 m/s 23.5 mm 21.5° 1015.9 hPa 3.8 m/s 23.5 mm
17:00 17.7° 1017.3 hPa 3.8 m/s 23.8 mm 17.7° 1017.3 hPa 3.8 m/s 23.8 mm
20:00 18.9° 1017.9 hPa 3.4 m/s 23.9 mm 18.9° 1017.9 hPa 3.4 m/s 23.9 mm
23:00 15.3° 1019.2 hPa 2.1 m/s 24.0 mm 15.3° 1019.2 hPa 2.1 m/s 24.0 mm
 05:22     21:38    Daglengte: 16:16 Zaterdag 02 Jul
02:00 14.9° 1020.8 hPa 2.0 m/s 24.0 mm 14.9° 1020.8 hPa 2.0 m/s 24.0 mm
05:00 14.0° 1021.5 hPa 1.8 m/s 24.0 mm 14.0° 1021.5 hPa 1.8 m/s 24.0 mm
08:00 16.7° 1021.9 hPa 2.2 m/s 24.0 mm 16.7° 1021.9 hPa 2.2 m/s 24.0 mm
11:00 21.6° 1021.5 hPa 3.2 m/s 24.0 mm 21.6° 1021.5 hPa 3.2 m/s 24.0 mm
14:00 24.7° 1020.7 hPa 3.1 m/s 24.0 mm 24.7° 1020.7 hPa 3.1 m/s 24.0 mm
17:00 25.6° 1019.8 hPa 3.1 m/s 24.0 mm 25.6° 1019.8 hPa 3.1 m/s 24.0 mm
20:00 23.5° 1019.6 hPa 2.3 m/s 24.0 mm 23.5° 1019.6 hPa 2.3 m/s 24.0 mm
23:00 18.7° 1020.5 hPa 1.2 m/s 24.0 mm 18.7° 1020.5 hPa 1.2 m/s 24.0 mm
 05:23     21:37    Daglengte: 16:14 Zondag 03 Jul
02:00 16.7° 1020.4 hPa 0.3 m/s 24.0 mm 16.7° 1020.4 hPa 0.3 m/s 24.0 mm
08:00 18.9° 1019.9 hPa 1.2 m/s 24.0 mm 18.9° 1019.9 hPa 1.2 m/s 24.0 mm
14:00 27.8° 1018.0 hPa 4.0 m/s 24.0 mm 27.8° 1018.0 hPa 4.0 m/s 24.0 mm
20:00 26.0° 1016.9 hPa 3.9 m/s 24.0 mm 26.0° 1016.9 hPa 3.9 m/s 24.0 mm
 05:24     21:37    Daglengte: 16:13 Maandag 04 Jul
02:00 17.4° 1018.5 hPa 1.3 m/s 24.0 mm 17.4° 1018.5 hPa 1.3 m/s 24.0 mm
08:00 18.1° 1019.4 hPa 1.8 m/s 24.0 mm 18.1° 1019.4 hPa 1.8 m/s 24.0 mm
14:00 25.1° 1019.2 hPa 3.9 m/s 24.0 mm 25.1° 1019.2 hPa 3.9 m/s 24.0 mm
20:00 22.1° 1019.6 hPa 5.4 m/s 24.0 mm 22.1° 1019.6 hPa 5.4 m/s 24.0 mm
 05:25     21:36    Daglengte: 16:11 Dinsdag 05 Jul
02:00 14.5° 1022.7 hPa 2.0 m/s 24.0 mm 14.5° 1022.7 hPa 2.0 m/s 24.0 mm
08:00 15.7° 1023.9 hPa 2.3 m/s 24.0 mm 15.7° 1023.9 hPa 2.3 m/s 24.0 mm
14:00 24.6° 1022.3 hPa 2.8 m/s 24.0 mm 24.6° 1022.3 hPa 2.8 m/s 24.0 mm
20:00 23.4° 1022.0 hPa 3.6 m/s 24.0 mm 23.4° 1022.0 hPa 3.6 m/s 24.0 mm
 05:25     21:36    Daglengte: 16:11 Woensdag 06 Jul
02:00 17.2° 1018.9 hPa 1.0 m/s 0.4 mm
08:00 18.3° 1019.1 hPa 0.2 m/s 0.2 mm
14:00 25.9° 1018.0 hPa 1.2 m/s 0.4 mm
20:00 23.7° 1017.0 hPa 1.0 m/s 0.4 mm
 05:26     21:35    Daglengte: 16:09 Donderdag 07 Jul
02:00 17.5° 1018.4 hPa 0.4 m/s 0.3 mm
08:00 18.6° 1018.8 hPa 0.7 m/s 0.5 mm
14:00 25.6° 1018.1 hPa 2.1 m/s 0.7 mm
20:00 23.8° 1017.2 hPa 1.7 m/s 0.6 mm
 05:27     21:35    Daglengte: 16:08 Vrijdag 08 Jul
02:00 17.2° 1018.8 hPa 0.7 m/s 0.1 mm
08:00 18.2° 1019.1 hPa 0.5 m/s 0.5 mm
14:00 25.7° 1017.8 hPa 2.3 m/s 0.7 mm
20:00 23.8° 1016.8 hPa 1.9 m/s 0.6 mm
 05:28     21:34    Daglengte: 16:06 Zaterdag 09 Jul
02:00 16.9° 1018.5 hPa 0.6 m/s 0.5 mm
08:00 18.1° 1018.5 hPa 0.6 m/s 0.1 mm
14:00 25.4° 1017.0 hPa 2.2 m/s 0.2 mm
20:00 23.6° 1015.8 hPa 1.5 m/s 0.4 mm
 05:29     21:33    Daglengte: 16:04 Zondag 10 Jul
02:00 17.3° 1016.8 hPa 0.4 m/s 0.4 mm
08:00 18.1° 1016.9 hPa 0.9 m/s 0.2 mm
14:00 24.6° 1016.1 hPa 2.6 m/s 0.5 mm
20:00 22.8° 1015.9 hPa 2.2 m/s 0.4 mm
 05:30     21:33    Daglengte: 16:03 Maandag 11 Jul
02:00 16.5° 1017.8 hPa 1.1 m/s 0.1 mm
FMI Hirlam - 7.5 km EWN WRFDA - 12 km DWD ICON - 7 km GFS - 25 km Basiskaart






























































Updatetijd (Europe/Amsterdam) Resolutie Lengte Stap
FMI Hirlam 01:45, 07:45, 13:45, 19:45 7.5 km 49h 1h
EWN WRFDA 22:30, 04:30, 10:30, 16:30 12 km 73h 1h
DWD ICON 23:45, 05:45, 11:45, 17:45 7 km 75h 1h
GFS 02:15, 08:15, 14:15, 20:15 25 km 237h 3h
30+ mm
25-30 mm
20-25 mm
15-20 mm
10-15 mm
6-10 mm
4-6 mm
2-4 mm
1-2 mm
0.5-1 mm
0.2-0.5 mm
0.1-0.2 mm
30+ mm
25-30 mm
20-25 mm
15-20 mm
10-15 mm
6-10 mm
4-6 mm
2-4 mm
1-2 mm
0.5-1 mm
0.2-0.5 mm
0.1-0.2 mm
Sneeuwval
Natte sneeuw
Hagel
Vorst
30+ mm
25-30 mm
20-25 mm
15-20 mm
10-15 mm
6-10 mm
4-6 mm
2-4 mm
1-2 mm
0.5-1 mm
0.2-0.5 mm
0.1-0.2 mm
Sneeuwval
Natte sneeuw
Hagel
Vorst
Onweer
50 mm
40 mm
30 mm
26 mm
22 mm
18 mm
14 mm
10 mm
9 mm
8 mm
7 mm
6 mm
5 mm
4.5 mm
4 mm
3.5 mm
3 mm
2.5 mm
2 mm
1.5 mm
1 mm
0.8 mm
0.6 mm
0.4 mm
0.2 mm
0.05 mm
35°
30°
25°
20°
15°
10°
-5°
-10°
-15°
-20°
-25°
-30°
-35°
33> m/s
29 m/s
25 m/s
21 m/s
17 m/s
14 m/s
11 m/s
8 m/s
5 m/s
3 m/s
0 m/s
2600 J/kg
2400 J/kg
2200 J/kg
2000 J/kg
1800 J/kg
1600 J/kg
1400 J/kg
1200 J/kg
1000 J/kg
800 J/kg
600 J/kg
400 J/kg
200 J/kg
70 dBZ
65 dBZ
60 dBZ
55 dBZ
50 dBZ
45 dBZ
40 dBZ
35 dBZ
30 dBZ
25 dBZ
20 dBZ
15 dBZ
10 dBZ
5 dBZ
-1 K
-2 K
-3 K
-4 K
-5 K
-6 K
-7 K
-8 K
-9 K
950 m²/s²
900 m²/s²
850 m²/s²
800 m²/s²
750 m²/s²
700 m²/s²
650 m²/s²
600 m²/s²
550 m²/s²
500 m²/s²
450 m²/s²
400 m²/s²
350 m²/s²
300 m²/s²
250 m²/s²
200 m²/s²
150 m²/s²
100 m²/s²
46 m/s
44 m/s
42 m/s
40 m/s
38 m/s
36 m/s
34 m/s
32 m/s
30 m/s
28 m/s
26 m/s
24 m/s
22 m/s
20 m/s
16 m/s
12 m/s
8 m/s
4 m/s
30 m/s
28 m/s
26 m/s
24 m/s
22 m/s
20 m/s
18 m/s
16 m/s
14 m/s
12 m/s
10 m/s
8 m/s
6 m/s
4 m/s
2 m/s
3.0
2.8
2.6
2.4
2.2
2.0
1.8
1.6
1.4
1.2
1.0
0.8
0.6